Погода в Блэкпуле

Великобритания     53°48′50″N   3°03′11″W
темп.,
°C
ветер,
м/с
пор.,
м/с
влажн.,
%
обл.,
%
осадки,
мм/ч
давл.,
гПа
погр.,
м
17 мая, пн
пн1701:00+8в339195 0.5 100056
04:00+7вюв3394100 0.1 100168
07:00+9с229198 0.5 1003131
10:00+10зсз6787100 0.6 1005613
13:00+11зсз897299 0.7 1006921
16:00+11з797096 0.0 10071031
19:00+11з688078 0.0 1008565
22:00+9з698558 0.1 1009333
18 мая, вт
вт1801:00+9зюз3686100 0.3 1009172
04:00+9ююз3589100 0.4 1009183
07:00+10з248692 2.3 1010181
10:00+11зсз45765 0.9 1012645
13:00+12з56722 0.9 1013846
16:00+12зсз466746 0.0 1013674
19:00+11зсз35714 0.0 1013419
22:00+8зсз228339 0.0 101473
19 мая, ср
ср1901:00+8з128522 0.0 1015105
04:00+8зюз238857 0.0 1015104
07:00+9ююз248814 0.4 1016164
10:00+11сз78789 0.9 1018708
13:00+12зсз67705 0.9 1019906
16:00+11з66721 0.0 1020771
19:00+11з46743 0.0 1020445
22:00+9зюз47875 0.0 1021162
20 мая, чт
чт2001:00+8ююз46904 0.1 1021130
04:00+7ю359220 0.0 1021118
07:00+8ююв3490100 0.1 1020181
10:00+12ю4675100 0.0 1019774
13:00+13ю5765100 0.0 10171252
16:00+10ююв81387100 0.8 1014844
19:00+10ююв91589100 0.9 1011683
22:00+10ююв91391100 0.2 1009570
21 мая, пт
пт2101:00+11ююз712845 0.8 1007612
04:00+10ю7128490 0.1 1004703
07:00+10ююз8137859 0.1 10011131
10:00+12ююз91571100 0.2 9991756
13:00+11ююз111783100 0.8 9971439
16:00+10ююз101785100 0.8 9941440
19:00+11ю91681100 1.4 9911387
22:00+9ю91490100 0.9 989992